Theta_e
352 353 353 353 350 356 355 356 356 356 351 348 346 347 351 350 352 357 356 356 355 355 356 357 357 358 352 354 351 352 349 348 344 350 355 358 359 359 359 360 356 355 356
354 355 354 355 355 348 347 349 356 355 354 346 350 352 350 351 356 356 355 350 353 351 354 352 353 353 358 364 355 356 352 352 347 348 353 354 356 359 361 361 358 355 359
357 355 356 356 356 348 347 351 356 356 356 349 351 351 354 354 356 356 356 354 355 351 353 353 351 352 358 357 358 354 353 353 352 348 348 355 354 356 355 359 359 360 359
351 357 356 352 352 353 356 355 353 357 356 352 349 349 354 355 356 357 356 355 356 356 356 357 355 352 356 359 356 359 357 359 356 352 353 353 353 355 354 350 349 353 352
348 350 346 345 352 355 357 354 353 355 356 354 353 350 351 350 351 355 356 356 358 356 356 357 357 356 349 351 358 357 359 354 359 352 353 347 347 347 351 350 349 349 353
350 349 352 355 357 358 354 350 349 353 354 355 353 352 352 350 339 339 349 354 358 357 355 357 356 351 348 341 340 341 355 359 356 349 348 346 354 350 351 349 348 346 341
347 348 350 352 354 356 357 356 354 352 354 354 352 352 351 352 334 335 340 351 356 356 356 354 354 353 352 358 342 338 338 338 341 357 351 352 351 355 355 355 352 349 346
342 345 348 349 350 354 354 352 351 353 355 354 354 352 351 351 333 331 336 350 353 357 356 356 355 356 357 357 358 356 357 356 353 349 353 358 359 357 357 355 354 352 351
332 335 342 348 349 349 349 351 353 350 350 353 354 353 352 353 330 328 334 349 349 351 355 357 356 356 343 335 355 355 356 354 341 335 336 335 337 337 341 351 345 343 339
332 333 338 343 349 347 348 349 352 353 349 351 352 355 344 354 330 325 333 348 348 349 353 356 336 349 334 328 352 354 352 353 356 353 354 343 339 343 333 350 347 338 335
332 333 336 339 342 349 347 349 350 351 350 347 349 353 354 349 352 323 322 350 348 348 347 347 351 328 324 319 328 355 351 358 348 351 351 351 352 350 346 345 347 342 338
331 332 335 337 339 342 345 345 348 349 349 348 345 348 352 353 331 328 321 325 340 350 349 350 350 324 319 318 323 331 326 332 349 349 347 346 346 343 341 344 347 347 347
328 330 333 334 335 340 343 343 341 346 343 343 341 343 348 346 351 324 322 321 324 346 351 343 330 317 315 319 319 322 321 341 346 347 346 345 345 343 345 346 347 347 347
326 329 330 330 329 332 335 340 340 340 340 342 341 344 346 343 345 347 338 334 324 332 336 346 338 332 327 334 334 325 338 343 346 347 347 347 345 340 339 341 339 339 338
325 326 326 325 327 328 330 335 339 340 337 340 343 345 344 333 333 329 335 346 339 333 336 342 340 340 341 342 344 345 338 339 343 348 347 345 341 338 338 341 339 338 336
324 324 324 324 324 325 326 329 319 316 310 307 306 321 344 322 312 311 312 314 314 314 331 335 337 338 341 345 345 343 341 340 345 346 345 343 338 337 338 339 338 337 335
324 325 324 321 323 324 325 326 330 328 308 303 303 304 303 314 307 305 303 304 304 310 335 335 337 338 342 345 344 342 340 343 349 344 340 338 338 338 336 337 336 335 333
325 315 323 323 324 324 325 326 329 330 330 333 313 311 304 304 302 298 298 303 319 316 332 335 336 342 343 344 344 342 341 341 340 339 338 339 339 338 336 335 334 332 331
324 324 324 324 324 323 325 326 328 330 330 330 333 312 307 301 301 301 302 326 329 328 329 333 336 340 343 344 345 344 343 342 342 340 339 339 339 338 336 334 332 317 321
325 321 320 324 324 324 325 325 325 328 328 330 331 330 333 312 319 327 328 325 329 330 335 334 334 337 338 342 345 344 343 342 342 340 339 339 338 337 334 333 332 329 328
325 325 321 323 323 324 325 326 325 326 328 334 333 332 317 329 332 331 328 329 330 333 335 335 334 333 338 342 345 342 342 342 340 339 340 338 337 334 334 333 331 330 328
325 325 321 319 321 323 324 326 325 327 329 333 333 331 305 326 330 334 333 332 334 333 335 335 332 338 336 341 343 342 340 339 339 339 338 336 335 334 333 332 330 328 327
325 324 322 321 322 319 322 325 326 327 332 333 333 333 330 327 327 330 333 333 334 335 335 333 335 336 339 338 342 342 340 340 340 339 337 336 334 333 332 330 328 327 324
330 327 325 322 322 324 323 324 325 318 329 331 334 334 332 329 327 330 332 333 334 336 337 335 337 336 337 340 344 341 343 342 340 338 338 335 333 326 330 329 327 326 324
328 330 331 327 324 323 326 324 325 327 329 330 333 334 333 333 332 332 332 333 335 336 338 337 337 339 340 342 344 342 320 306 333 321 336 335 332 330 329 328 326 325 324
327 329 330 327 324 325 327 328 330 330 333 334 334 335 335 335 335 333 330 332 335 336 338 336 337 340 344 345 341 315 296 298 317 306 333 332 330 329 328 327 326 325 325
Wind_Speed
14 10 10 9 4 6 11 11 11 9 9 9 9 9 12 11 11 10 10 8 8 7 8 7 8 6 6 5 5 5 5 5 5 1 2 1 2 3 4 3 5 5 4
12 12 13 10 12 8 2 12 12 11 11 9 9 10 9 9 11 11 11 7 8 9 9 7 7 6 9 7 6 6 5 5 5 5 3 3 3 3 4 5 5 4 5
8 9 11 10 9 12 13 15 13 11 11 10 9 8 12 12 11 10 10 10 10 10 9 10 9 9 7 6 7 5 6 5 5 5 5 3 4 4 5 5 5 4 5
8 7 9 7 7 9 12 12 11 13 12 12 10 10 12 11 11 10 10 10 11 10 10 10 9 10 9 8 7 8 6 5 5 6 5 6 6 4 5 6 6 4 6
5 8 8 9 7 9 8 8 10 12 11 12 12 11 11 9 9 11 10 10 11 10 11 11 11 10 9 8 6 8 7 7 5 6 6 7 7 6 6 4 6 5 6
5 5 7 9 7 5 4 6 7 13 12 12 12 13 14 10 10 12 11 10 11 11 11 11 9 9 11 10 11 9 7 8 9 7 6 7 8 6 5 6 5 5 6
6 7 10 10 10 8 7 7 10 11 12 14 13 14 14 14 13 13 14 10 11 12 12 8 10 9 10 10 13 10 10 11 11 7 8 9 8 7 6 6 6 6 7
6 6 6 7 8 8 6 6 8 10 12 13 13 14 14 13 14 17 14 13 10 12 13 12 11 11 11 11 10 9 10 10 11 9 11 9 7 5 6 5 6 6 7
6 7 8 8 7 6 7 7 7 7 9 11 12 13 15 14 15 16 14 12 12 11 10 11 13 13 11 12 10 10 10 10 7 8 8 6 5 5 5 5 5 5 7
6 7 8 9 8 8 7 7 8 7 10 7 12 14 14 15 14 16 15 11 13 11 12 12 12 13 11 13 11 10 11 11 9 8 8 7 8 7 7 7 6 8 8
10 8 8 9 10 8 7 7 7 8 9 8 10 12 13 14 14 18 19 13 11 10 10 10 10 15 12 12 13 10 11 7 7 7 7 6 7 7 6 7 7 7 6
9 9 8 10 8 7 7 7 7 8 9 9 8 8 8 10 12 12 14 20 13 12 11 10 10 13 14 15 11 11 7 7 7 7 8 8 7 7 5 5 5 6 5
11 10 10 8 9 9 8 8 7 7 7 7 5 7 7 5 6 11 12 15 15 12 11 11 9 11 12 9 12 9 8 8 9 9 9 9 7 6 4 5 5 5 6
12 11 10 9 9 9 8 8 7 7 8 7 6 10 6 5 5 3 2 7 11 9 10 7 6 6 6 4 7 7 9 9 10 11 9 8 6 6 7 6 6 6 6
11 11 12 11 11 10 10 9 8 9 9 9 8 10 10 10 8 14 14 8 8 10 7 5 4 5 7 8 8 8 7 7 9 10 9 8 8 7 7 5 6 6 7
12 10 10 11 11 10 10 10 11 13 11 12 10 9 9 8 12 19 23 23 19 17 9 9 10 9 11 11 11 10 9 10 10 10 9 8 7 7 7 6 6 6 7
13 12 10 10 10 11 10 9 9 9 12 9 8 8 2 11 20 18 10 10 7 10 6 10 12 11 12 12 12 11 11 11 10 9 8 8 8 7 5 7 6 6 6
14 13 12 11 11 11 11 10 9 9 8 7 9 9 10 8 10 3 5 7 5 8 8 9 8 11 12 12 12 11 11 10 10 9 9 8 8 8 7 7 6 7 6
12 10 10 10 11 11 10 10 10 9 8 8 5 5 11 11 11 5 9 10 6 6 7 8 10 10 9 10 11 10 12 12 11 9 9 8 8 8 8 7 6 3 2
12 16 13 10 10 11 11 11 10 9 10 10 8 9 6 6 7 12 11 10 7 8 8 10 12 10 10 11 10 11 11 11 11 10 9 8 8 8 8 8 7 7 7
9 10 12 11 12 12 12 13 11 9 10 10 10 11 10 9 9 9 10 10 11 12 12 12 12 11 10 11 11 10 12 12 11 10 9 9 9 9 8 7 7 7 6
9 9 8 10 10 12 14 13 9 9 10 11 10 10 14 9 10 10 11 11 11 12 10 10 8 11 10 13 13 12 13 12 11 10 10 10 9 8 8 8 8 7 7
9 10 9 9 10 11 11 12 9 9 11 11 9 8 8 9 9 11 12 12 11 11 11 9 9 10 9 10 10 12 12 12 11 11 11 11 10 9 9 8 8 8 8
10 11 10 8 9 10 11 10 9 9 10 10 10 8 8 9 9 12 12 11 11 10 10 9 9 10 9 8 11 12 11 10 10 12 14 11 10 10 9 9 9 9 8
11 11 9 9 8 9 10 10 9 11 10 9 10 9 10 10 11 12 10 11 12 11 12 10 9 10 13 19 18 17 12 15 14 13 11 12 13 14 11 10 10 10 10
10 10 7 5 6 6 8 9 9 8 10 10 10 10 11 11 11 9 9 11 11 11 11 8 10 14 19 17 18 16 16 16 14 14 12 12 12 11 11 11 13 9 11
Wind_Direction
255 251 239 219 162 264 244 239 237 217 212 210 201 207 212 211 214 208 216 214 204 212 224 232 216 195 214 208 204 219 218 221 257 207 270 324 282 286 308 260 261 261 243
255 256 252 249 177 182 283 267 241 215 208 199 196 204 199 211 208 206 210 199 207 206 210 214 227 211 228 203 208 209 213 209 252 260 314 272 276 316 290 276 270 258 267
223 242 252 249 224 177 192 237 239 215 205 192 188 202 207 206 204 208 215 194 208 209 209 210 215 214 227 209 219 216 210 213 215 250 265 258 286 289 289 271 281 290 257
219 221 232 240 231 227 197 203 225 221 201 189 189 197 213 207 202 208 214 202 214 217 214 215 220 214 221 212 219 222 225 226 223 237 255 260 260 267 271 281 276 267 290
254 255 247 238 221 210 181 195 211 225 215 203 195 201 209 210 213 205 217 218 218 218 220 216 217 217 219 222 220 224 229 238 226 227 252 255 259 254 257 284 275 291 273
349 316 314 315 318 314 187 209 205 228 218 212 206 206 210 217 212 195 213 216 217 216 221 222 227 194 217 220 233 256 245 229 235 244 245 253 261 251 258 262 267 267 283
337 333 337 347 342 328 292 246 233 221 215 217 209 209 215 217 205 205 200 222 220 217 220 215 221 221 214 224 212 221 226 235 248 237 245 256 265 256 257 239 245 256 264
309 313 320 332 339 330 307 267 241 238 229 221 218 212 216 219 195 205 201 217 226 222 217 216 218 227 221 220 236 232 234 228 225 226 238 259 248 255 237 258 279 275 262
291 309 309 310 315 328 317 303 285 242 234 238 227 221 216 225 196 197 190 217 222 231 226 215 219 224 217 203 231 239 237 237 204 230 248 269 259 241 262 242 243 267 277
279 286 296 295 287 295 305 300 293 268 251 239 241 227 221 222 199 195 189 215 224 229 223 228 211 230 209 184 217 230 234 240 227 231 220 214 212 197 191 230 256 269 283
287 280 278 282 280 272 287 289 284 277 262 237 238 237 230 222 225 196 188 214 226 225 234 222 228 203 216 185 207 224 229 238 226 239 235 222 206 211 220 217 236 253 256
266 272 276 290 292 276 272 278 275 265 266 259 237 231 221 227 230 223 207 212 216 225 233 235 234 185 200 197 192 223 212 209 236 225 224 222 221 221 222 216 217 232 245
265 266 270 275 286 281 264 264 268 259 255 266 234 220 200 186 206 219 224 233 239 228 241 233 222 188 199 198 215 211 180 221 225 223 222 224 219 221 202 206 205 205 226
254 255 261 269 279 282 272 255 254 257 256 243 230 226 190 161 134 161 222 223 227 255 256 229 218 220 219 244 168 192 221 218 225 225 222 220 202 200 212 222 231 218 244
256 258 261 261 264 273 268 262 239 246 256 264 238 230 201 204 195 142 190 194 205 198 199 203 179 189 205 213 220 215 206 208 216 221 218 208 207 211 217 212 233 234 247
259 255 255 258 254 258 262 265 224 240 263 270 273 272 207 241 170 179 194 182 176 177 181 195 198 199 211 216 213 210 202 208 209 204 209 211 211 209 218 211 225 232 248
255 260 257 247 253 249 249 250 254 239 234 247 239 224 297 265 190 204 190 133 166 164 227 211 190 198 211 215 212 204 205 204 203 205 209 209 210 217 200 219 217 235 234
257 249 253 247 244 239 242 245 243 244 254 260 217 209 209 235 218 345 349 126 180 225 202 238 236 221 206 207 206 203 203 199 202 203 207 211 211 216 206 212 217 227 228
252 250 249 245 243 241 247 248 246 242 235 244 227 205 211 193 214 214 187 244 220 209 200 217 241 243 226 218 205 203 206 206 205 201 205 208 209 202 201 208 213 230 215
252 245 250 243 239 236 241 242 242 235 235 233 234 234 203 146 208 222 216 227 242 243 248 237 236 230 226 226 222 206 207 203 200 201 204 201 195 198 202 204 208 194 206
257 249 229 237 240 242 242 238 234 231 232 236 243 244 186 203 213 218 229 235 237 243 240 230 236 233 226 224 211 207 205 199 199 195 195 192 188 197 203 200 199 207 197
251 247 239 236 241 243 239 235 224 227 232 239 240 230 172 209 238 235 235 228 229 231 234 236 224 235 220 220 206 196 196 195 186 188 188 188 186 197 192 191 198 196 188
239 245 241 235 235 230 232 229 219 219 229 236 236 233 209 221 235 245 249 237 232 226 231 225 225 217 202 208 207 191 187 189 185 184 182 181 182 190 191 192 191 191 191
241 244 244 234 230 227 225 225 224 225 231 234 229 234 235 226 231 238 244 243 235 227 224 212 209 191 195 192 203 198 186 180 177 179 177 180 184 173 182 184 190 192 187
252 256 248 247 224 224 225 222 219 223 222 226 240 245 248 233 229 230 235 239 235 221 217 204 204 191 206 198 201 184 149 141 170 162 176 176 181 178 178 184 185 184 189
257 255 247 217 214 217 225 223 219 218 224 232 248 248 249 243 240 241 227 230 232 221 213 205 207 199 201 200 193 148 147 158 148 169 170 172 170 177 179 187 185 191 184